Vorticity
5 4 4 4 4 4 4 4 4 4 5 6 7 6 4 6 8 6 4 13 14 9 8 10 12 11 9 7 7 6 5 6 6 5 5 6 6 7 8 9 8 9 7 7 7 8 7
4 5 5 4 4 4 4 4 4 5 6 7 7 5 4 6 6 5 5 9 5 6 5 8 9 6 4 0 9 8 9 9 8 6 8 7 6 7 5 6 5 8 3 6 7 7 8
5 4 4 4 4 4 5 5 6 7 7 7 7 5 4 6 6 5 6 7 9 4 4 5 6 6 8 10 8 7 7 7 8 8 8 6 6 5 5 9 12 6 7 1 6 11 14
7 6 7 7 6 6 7 7 7 7 7 8 7 4 5 8 7 4 5 6 7 9 3 5 6 11 9 10 11 12 12 12 11 11 10 9 9 7 8 7 2 0 8 14 13 7 5
6 6 6 6 6 6 7 7 7 8 8 8 6 5 7 7 6 4 5 8 10 9 9 7 8 7 19 12 6 5 8 10 12 12 12 10 10 7 8 7 5 10 2 4 6 17 12
7 7 7 6 6 6 6 7 7 7 8 7 6 5 8 7 5 4 6 8 11 10 10 11 19 5 1 2 5 9 10 7 3 4 7 8 9 8 9 9 1 0 13 11 11 7 3
9 8 8 7 7 7 7 7 8 8 7 7 5 6 7 6 5 4 4 8 9 16 4 7 4 5 14 7 14 13 16 15 15 14 11 11 9 5 7 15 16 14 12 8 6 3 3
7 7 8 8 8 7 7 7 7 8 8 7 5 5 7 7 6 4 5 6 10 4 12 9 11 9 12 14 13 14 10 10 12 13 14 15 10 14 11 9 6 5 2 2 8 17 17
8 7 7 7 8 8 7 7 7 7 8 8 6 5 5 6 6 7 5 8 10 9 11 16 21 21 10 17 8 7 6 7 6 5 5 3 -1 4 6 1 -2 6 11 10 6 9 3
10 8 7 7 7 7 8 8 8 7 7 8 7 5 4 5 6 6 5 11 11 9 26 15 15 12 11 6 11 6 7 3 4 4 7 17 18 11 12 14 10 2 11 11 7 7 8
5 8 9 7 8 7 7 8 8 8 8 8 8 7 5 5 5 6 9 14 10 11 16 6 12 10 10 6 1 6 6 7 3 4 3 -8 -2 5 7 5 10 -1 8 1 11 7 12
5 5 5 10 8 8 8 8 8 8 8 8 9 8 6 6 6 7 10 11 10 19 12 2 1 4 9 7 5 3 4 2 3 9 11 12 15 15 14 9 5 -1 8 16 17 20 32
3 6 5 5 7 10 8 7 8 8 8 8 9 9 7 7 5 8 9 8 21 12 4 11 6 4 -2 2 5 5 5 6 5 12 15 10 7 6 7 9 9 17 10 15 15 12 -4
4 5 6 6 5 4 8 11 8 8 8 8 8 9 8 6 6 8 7 9 14 6 -4 -11 3 7 7 8 9 11 12 14 15 12 3 22 20 20 12 11 -1 5 -3 -16 11 6 -4
12 4 2 6 6 6 5 4 7 12 9 9 8 8 9 8 8 7 8 18 -5 10 19 12 7 15 18 24 11 10 18 12 11 20 6 4 18 11 7 7 1 14 16 17 -0 16 26
18 -4 2 2 4 4 2 3 4 4 8 12 10 9 7 10 8 9 9 4 -9 -3 -0 0 2 9 -1 4 16 14 20 4 4 14 11 3 14 26 16 14 9 8 -5 7 12 9 7
-4 10 13 11 4 2 8 2 6 3 5 6 9 12 13 12 11 10 8 7 8 9 13 16 7 0 1 4 8 2 1 -4 4 4 1 7 22 -6 2 11 7 13 12 10 4 -8 -0
7 -11 17 14 9 -0 2 9 4 11 7 4 2 4 3 2 8 6 6 9 12 7 7 7 8 8 8 9 16 17 0 7 -11 -9 3 4 -2 0 0 7 9 9 8 6 -6 17 3
14 13 8 15 6 16 -1 3 16 6 13 10 3 7 7 6 6 10 8 8 7 9 9 9 9 2 5 8 14 25 16 12 14 14 -3 -9 8 12 14 32 30 26 19 24 20 11 -1
4 -16 -9 6 24 -17 7 16 15 -0 6 23 17 -1 6 10 15 13 14 14 11 9 10 9 6 11 13 11 11 -7 -4 2 -6 -3 8 14 8 -7 -35 -37 -17 -5 -0 11 15 8 -1
9 15 11 21 -19 28 16 22 -15 14 16 16 19 11 1 -16 -9 -10 -2 -6 -0 -0 8 15 5 -0 5 11 15 9 2 12 12 9 12 15 8 15 13 13 13 11 8 6 5 14 4
15 4 7 22 -15 2 42 -16 -9 8 1 3 5 16 8 4 5 9 9 9 12 16 12 10 11 14 12 11 9 -8 -1 14 8 8 15 11 7 6 3 12 21 16 17 22 21 19 12
11 12 6 16 -0 2 3 10 10 8 7 26 21 14 6 -2 9 14 11 13 11 12 13 16 19 17 14 11 -1 -2 19 9 4 7 7 12 10 5 30 11 1 45 55 37 28 22 24
12 12 8 5 9 -3 2 5 11 11 9 15 -13 9 12 4 14 12 11 10 5 6 8 9 8 5 -8 10 26 13 10 10 10 11 12 5 9 22 2 27 21 25 6 -6 -4 -0 15
16 18 22 20 17 4 27 -1 6 17 -0 10 8 2 10 10 13 8 10 10 8 9 12 14 5 6 6 13 18 25 19 37 29 31 24 18 16 2 2 12 -14 25 30 23 3 -3 3
16 16 11 15 10 18 8 17 12 8 9 -2 19 17 17 9 14 12 9 7 12 1 6 7 15 8 13 9 15 19 3 2 19 10 16 16 14 -5 10 8 4 -3 -8 5 9 15 30
24 13 -0 22 -16 29 -6 13 16 6 13 10 13 34 27 10 8 3 3 7 11 12 -1 13 15 19 8 10 12 16 17 -3 13 9 12 14 18 12 3 -9 12 3 14 10 35 -8 -19
26 16 13 19 -18 3 -4 10 -4 6 -4 14 23 15 11 6 -2 -0 6 20 8 -7 20 9 16 13 16 22 13 11 13 8 9 -0 -0 5 7 11 35 19 24 17 14 10 -8 1 8
27 21 15 -8 21 -17 7 21 14 12 13 12 35 18 7 9 -2 12 11 5 9 24 5 10 4 -3 -2 5 2 13 5 1 4 5 18 12 1 -13 -7 -11 -19 -14 8 -3 10 12 7
Height
3152 3152 3153 3153 3153 3153 3153 3153 3153 3153 3152 3151 3151 3150 3149 3149 3148 3147 3145 3143 3143 3142 3142 3142 3140 3139 3138 3138 3138 3136 3136 3136 3136 3135 3135 3136 3136 3136 3136 3136 3138 3138 3139 3140 3141 3142 3143
3152 3152 3152 3152 3152 3153 3153 3153 3153 3153 3152 3151 3150 3149 3149 3148 3147 3145 3144 3143 3142 3141 3141 3140 3139 3137 3136 3137 3135 3135 3135 3134 3134 3134 3134 3135 3135 3136 3136 3136 3137 3137 3138 3138 3139 3140 3141
3151 3151 3151 3152 3152 3152 3153 3153 3153 3152 3151 3150 3150 3149 3148 3147 3146 3145 3144 3142 3141 3140 3138 3138 3137 3136 3135 3135 3133 3132 3131 3131 3131 3132 3132 3132 3133 3135 3135 3136 3136 3136 3137 3136 3137 3138 3139
3150 3150 3151 3151 3151 3151 3152 3152 3151 3150 3149 3149 3148 3148 3147 3146 3145 3144 3143 3142 3140 3138 3137 3135 3134 3133 3132 3132 3130 3129 3128 3128 3128 3128 3129 3130 3131 3132 3132 3134 3135 3135 3136 3135 3135 3135 3135
3148 3148 3149 3149 3149 3150 3150 3150 3149 3149 3149 3148 3148 3147 3146 3145 3144 3143 3142 3140 3138 3137 3135 3134 3133 3131 3130 3129 3128 3127 3127 3126 3126 3127 3127 3128 3129 3130 3131 3132 3133 3133 3134 3135 3134 3134 3134
3147 3148 3148 3148 3148 3148 3148 3148 3148 3148 3148 3147 3147 3146 3145 3144 3143 3142 3141 3139 3137 3135 3134 3132 3130 3131 3129 3128 3126 3125 3124 3123 3124 3125 3126 3127 3127 3128 3129 3129 3129 3130 3130 3130 3131 3133 3132
3146 3146 3147 3147 3146 3146 3146 3146 3146 3146 3146 3146 3145 3145 3144 3143 3142 3141 3140 3138 3138 3135 3131 3130 3129 3127 3125 3125 3123 3122 3121 3121 3122 3122 3122 3123 3125 3127 3127 3127 3128 3129 3129 3129 3129 3128 3127
3143 3144 3144 3144 3144 3144 3144 3144 3144 3145 3145 3144 3144 3143 3143 3142 3141 3140 3138 3136 3133 3133 3128 3126 3124 3123 3123 3121 3121 3121 3122 3123 3122 3121 3121 3124 3123 3124 3125 3125 3126 3126 3125 3125 3125 3124 3122
3141 3141 3141 3142 3142 3142 3142 3142 3142 3143 3143 3142 3142 3142 3141 3140 3140 3139 3136 3134 3131 3128 3126 3122 3121 3120 3121 3121 3121 3121 3121 3120 3121 3121 3121 3121 3122 3122 3122 3122 3123 3123 3122 3122 3122 3120 3118
3140 3139 3139 3139 3139 3139 3140 3140 3140 3140 3140 3140 3139 3139 3139 3138 3139 3136 3134 3132 3129 3126 3124 3122 3120 3119 3121 3120 3121 3120 3120 3122 3120 3121 3120 3120 3119 3119 3119 3120 3119 3118 3119 3118 3116 3116 3113
3136 3137 3137 3136 3136 3136 3137 3137 3137 3138 3137 3137 3136 3136 3136 3135 3135 3133 3132 3129 3128 3126 3124 3122 3120 3120 3120 3122 3121 3119 3119 3118 3118 3118 3120 3118 3116 3116 3115 3115 3114 3115 3114 3113 3112 3111 3107
3133 3133 3134 3134 3134 3134 3134 3134 3134 3134 3135 3134 3134 3134 3133 3133 3132 3131 3129 3127 3127 3128 3121 3121 3119 3119 3120 3119 3119 3118 3118 3118 3117 3115 3114 3114 3113 3112 3111 3111 3111 3111 3111 3109 3106 3106 3100
3130 3130 3130 3132 3132 3131 3131 3131 3131 3131 3132 3132 3132 3131 3131 3130 3130 3128 3126 3126 3127 3122 3122 3120 3118 3118 3117 3117 3116 3115 3114 3113 3113 3112 3110 3109 3109 3108 3108 3107 3107 3107 3107 3107 3104 3103 3096
3126 3126 3127 3126 3129 3129 3128 3128 3128 3128 3128 3128 3128 3128 3128 3127 3127 3126 3126 3126 3125 3120 3118 3117 3116 3115 3115 3114 3113 3112 3111 3110 3110 3107 3105 3105 3104 3103 3103 3104 3104 3103 3105 3106 3101 3099 3090
3121 3121 3122 3123 3123 3125 3125 3125 3125 3125 3125 3125 3124 3124 3125 3124 3124 3124 3124 3123 3121 3119 3117 3116 3114 3112 3112 3112 3112 3110 3109 3110 3108 3108 3108 3102 3101 3101 3100 3100 3102 3099 3100 3101 3098 3094 3090
3115 3117 3118 3119 3119 3120 3121 3121 3121 3121 3121 3121 3121 3120 3120 3121 3120 3120 3120 3119 3118 3117 3116 3115 3114 3112 3110 3110 3111 3110 3108 3107 3107 3107 3106 3104 3101 3099 3098 3098 3096 3095 3095 3096 3097 3094 3090
3109 3110 3112 3113 3115 3115 3115 3115 3116 3117 3117 3117 3117 3116 3116 3116 3116 3116 3115 3113 3113 3113 3113 3113 3110 3109 3108 3108 3107 3106 3105 3103 3101 3101 3102 3100 3099 3097 3096 3094 3092 3092 3089 3089 3090 3087 3081
3102 3104 3106 3107 3109 3109 3109 3110 3111 3111 3113 3113 3113 3113 3113 3112 3113 3110 3109 3109 3109 3108 3108 3106 3105 3104 3102 3102 3100 3101 3099 3099 3098 3097 3097 3097 3092 3089 3088 3088 3086 3084 3085 3086 3087 3084 3080
3096 3097 3100 3101 3102 3103 3103 3104 3105 3106 3106 3106 3106 3106 3107 3107 3105 3105 3104 3103 3102 3102 3102 3099 3098 3097 3097 3097 3097 3092 3092 3093 3094 3094 3091 3091 3087 3086 3081 3082 3079 3078 3078 3079 3079 3076 3072
3088 3090 3093 3095 3095 3096 3097 3099 3099 3100 3100 3101 3100 3100 3101 3099 3100 3099 3098 3097 3096 3095 3095 3095 3094 3092 3091 3091 3091 3088 3088 3089 3089 3089 3087 3086 3082 3082 3078 3077 3076 3075 3075 3074 3074 3072 3065
3079 3082 3087 3088 3087 3090 3091 3092 3093 3094 3094 3095 3093 3093 3095 3094 3095 3095 3095 3092 3092 3091 3090 3090 3088 3088 3088 3087 3086 3084 3085 3084 3082 3082 3081 3081 3075 3074 3073 3072 3070 3067 3066 3065 3064 3063 3062
3070 3073 3077 3080 3080 3085 3086 3086 3086 3088 3088 3089 3088 3089 3089 3089 3088 3089 3087 3087 3088 3089 3087 3086 3085 3084 3083 3082 3082 3081 3080 3078 3076 3075 3075 3073 3069 3067 3062 3064 3062 3058 3057 3055 3054 3053 3052
3061 3064 3068 3072 3075 3079 3080 3081 3080 3080 3081 3080 3081 3082 3081 3081 3082 3083 3083 3083 3082 3083 3083 3082 3081 3079 3079 3079 3078 3076 3073 3071 3069 3067 3067 3067 3065 3063 3056 3056 3054 3052 3048 3047 3048 3047 3047
3052 3055 3059 3063 3067 3072 3072 3073 3073 3073 3074 3075 3075 3075 3074 3072 3074 3077 3077 3077 3077 3077 3077 3077 3076 3075 3075 3074 3072 3070 3068 3065 3063 3061 3059 3059 3060 3060 3055 3053 3052 3046 3046 3045 3044 3043 3043
3043 3048 3052 3057 3060 3062 3064 3066 3066 3067 3067 3067 3067 3067 3066 3065 3069 3071 3072 3072 3071 3071 3072 3072 3071 3072 3070 3069 3068 3065 3062 3060 3056 3054 3053 3055 3057 3057 3055 3053 3049 3044 3042 3042 3040 3039 3037
3035 3040 3044 3048 3052 3055 3056 3057 3058 3060 3060 3060 3059 3057 3057 3059 3063 3066 3066 3067 3066 3066 3067 3068 3067 3065 3065 3064 3063 3060 3059 3055 3053 3051 3051 3052 3053 3054 3051 3051 3046 3040 3040 3038 3036 3033 3031
3027 3031 3036 3041 3044 3045 3048 3049 3051 3053 3054 3053 3051 3051 3051 3053 3055 3059 3061 3060 3061 3061 3060 3060 3060 3060 3058 3057 3058 3057 3055 3055 3053 3050 3048 3048 3048 3047 3047 3045 3041 3037 3035 3034 3035 3034 3027
3019 3024 3028 3032 3036 3035 3040 3040 3043 3045 3046 3046 3045 3044 3047 3049 3050 3051 3054 3056 3056 3056 3055 3056 3058 3054 3053 3053 3052 3051 3049 3049 3049 3047 3046 3046 3045 3044 3043 3041 3038 3034 3034 3035 3031 3026 3023
3013 3017 3021 3024 3031 3028 3032 3033 3035 3038 3039 3039 3038 3039 3042 3046 3046 3047 3048 3051 3052 3050 3051 3050 3051 3049 3049 3049 3048 3046 3046 3044 3042 3041 3040 3041 3041 3042 3042 3037 3032 3031 3029 3027 3024 3021 3018